Date String (YYYY-MM-DD hh:mm:ss) UTC,Instrument flags,Ambient pressure (hPa),Sample flow (lpm),Bypass flow (lpm),Sample temperature (°C),Ambient temperature (°C),ASC tube jacket temperature (°C),LED temperature (°C),Box temperature (°C),Sample RH (%),Span deviation,Mass concentration (μg/m³),Mass concentration (μg/m³),Mass concentration (μg/m³)
DateTimeUTC,F1_M11,P_M11,Q1_M11,Q2_M11,T1_M11,T2_M11,T3_M11,T4_M11,T5_M11,U1_M11,ZSPAN_M11,X0_M11,X2_M11,X1_M11
2022-01-27 01:00:00,,0825.3,4.99,0.00,23.6,22.9,00.0,32.5,25.3,07.3,0000.0,0008.84,0004.13,0003.93
2022-01-27 01:01:00,,0825.2,5.00,0.00,23.6,22.9,00.0,32.5,25.3,07.4,0000.0,0008.85,0004.14,0003.94
2022-01-27 01:02:00,,0825.2,5.00,0.00,23.6,22.9,00.0,32.5,25.3,07.3,0000.0,0008.37,0004.18,0003.97
2022-01-27 01:03:00,,0825.2,5.00,0.00,23.5,22.9,00.0,32.5,25.3,07.3,0000.0,0007.31,0004.23,0004.01
2022-01-27 01:04:00,,0825.2,5.01,0.00,23.5,22.8,00.0,32.5,25.2,07.3,0000.0,0007.17,0004.26,0004.04
2022-01-27 01:05:00,,0825.2,5.00,0.00,23.5,22.8,00.0,32.5,25.2,07.2,0000.0,0007.20,0004.28,0004.06
2022-01-27 01:06:00,,0825.2,4.99,0.00,23.5,22.8,00.0,32.5,25.2,07.2,0000.0,0007.18,0004.26,0004.04
2022-01-27 01:07:00,,0825.2,5.00,0.00,23.5,22.8,00.0,32.5,25.2,07.2,0000.0,0007.15,0004.23,0004.02
2022-01-27 01:08:00,,0825.3,5.00,0.00,23.5,22.8,00.0,32.5,25.2,07.4,0000.0,0007.63,0004.22,0004.01
2022-01-27 01:09:00,,0825.3,5.01,0.00,23.5,22.7,00.0,32.5,25.2,07.8,0000.0,0007.99,0004.23,0004.02
2022-01-27 01:10:00,,0825.3,5.00,0.00,23.5,22.7,00.0,32.5,25.2,08.1,0000.0,0007.82,0004.26,0004.04
2022-01-27 01:11:00,,0825.3,5.01,0.00,23.4,22.7,00.0,32.5,25.1,08.1,0000.0,0007.71,0004.32,0004.12
2022-01-27 01:12:00,,0825.3,4.99,0.00,23.4,22.7,00.0,32.5,25.1,08.1,0000.0,0007.76,0004.39,0004.19
2022-01-27 01:13:00,,0825.3,4.99,0.00,23.4,22.6,00.0,32.5,25.1,08.0,0000.0,0007.88,0004.44,0004.24
2022-01-27 01:14:00,,0825.3,5.01,0.00,23.3,22.6,00.0,32.4,25.0,07.9,0000.0,0008.37,0004.47,0004.28
2022-01-27 01:15:00,,0825.3,5.00,0.00,23.3,22.5,00.0,32.4,25.0,08.1,0000.0,0008.42,0004.52,0004.31
2022-01-27 01:16:00,,0825.3,5.00,0.00,23.2,22.4,00.0,32.4,24.9,08.2,0000.0,0008.43,0004.56,0004.34
2022-01-27 01:17:00,,0825.3,5.00,0.00,23.2,22.3,00.0,32.4,24.8,08.2,0000.0,0008.43,0004.57,0004.36
2022-01-27 01:18:00,,0825.3,5.00,0.00,23.1,22.2,00.0,32.3,24.7,08.2,0000.0,0008.46,0004.61,0004.39
2022-01-27 01:19:00,,0825.4,4.99,0.00,23.1,22.1,00.0,32.3,24.6,08.5,0000.0,0008.12,0004.59,0004.38
2022-01-27 01:20:00,,0825.4,5.00,0.00,23.0,22.1,00.0,32.3,24.7,08.5,0000.0,0007.49,0004.54,0004.34
2022-01-27 01:21:00,,0825.3,5.00,0.00,23.0,22.1,00.0,32.3,24.7,08.3,0000.0,0007.44,0004.50,0004.32
2022-01-27 01:22:00,,0825.4,5.00,0.00,23.0,22.2,00.0,32.2,24.7,08.3,0000.0,0007.52,0004.44,0004.26
2022-01-27 01:23:00,,0825.4,5.00,0.00,23.0,22.2,00.0,32.2,24.7,08.4,0000.0,0008.03,0004.42,0004.21
2022-01-27 01:24:00,,0825.4,5.00,0.00,23.0,22.2,00.0,32.2,24.7,08.6,0000.0,0007.93,0004.41,0004.20
2022-01-27 01:25:00,,0825.3,5.00,0.00,23.0,22.2,00.0,32.2,24.7,08.6,0000.0,0007.36,0004.39,0004.18
2022-01-27 01:26:00,,0825.4,5.00,0.00,23.0,22.2,00.0,32.1,24.7,08.5,0000.0,0007.38,0004.40,0004.19
2022-01-27 01:27:00,,0825.4,5.00,0.00,23.0,22.2,00.0,32.1,24.7,08.6,0000.0,0007.47,0004.41,0004.21
2022-01-27 01:28:00,,0825.4,5.00,0.00,22.9,22.2,00.0,32.1,24.6,08.8,0000.0,0007.62,0004.49,0004.29
2022-01-27 01:29:00,,0825.4,4.99,0.00,22.9,22.2,00.0,32.1,24.7,08.7,0000.0,0007.68,0004.54,0004.33
2022-01-27 01:30:00,,0825.4,5.00,0.00,22.9,22.2,00.0,32.1,24.6,08.8,0000.0,0007.82,0004.62,0004.39
2022-01-27 01:31:00,,0825.4,5.00,0.00,22.9,22.2,00.0,32.1,24.6,09.1,0000.0,0008.00,0004.78,0004.53
2022-01-27 01:32:00,,0825.4,5.00,0.00,22.9,22.2,00.0,32.0,24.6,09.2,0000.0,0008.44,0005.02,0004.74
2022-01-27 01:33:00,,0825.4,5.00,0.00,22.9,22.1,00.0,32.0,24.6,09.2,0000.0,0008.95,0005.28,0004.95
2022-01-27 01:34:00,,0825.4,5.00,0.00,22.9,22.1,00.0,32.0,24.6,09.1,0000.0,0009.23,0005.47,0005.10
2022-01-27 01:35:00,,0825.4,5.00,0.00,22.9,22.1,00.0,32.0,24.6,09.1,0000.0,0009.27,0005.62,0005.22
2022-01-27 01:36:00,,0825.4,5.00,0.00,22.8,22.0,00.0,32.0,24.5,09.1,0000.0,0009.60,0005.80,0005.35
2022-01-27 01:37:00,,0825.4,5.00,0.00,22.8,22.0,00.0,32.0,24.5,09.1,0000.0,0009.89,0005.97,0005.49
2022-01-27 01:38:00,,0825.4,4.99,0.00,22.8,22.0,00.0,31.9,24.5,09.1,0000.0,0010.15,0006.14,0005.62
2022-01-27 01:39:00,,0825.4,5.00,0.00,22.8,22.0,00.0,31.9,24.5,09.0,0000.0,0010.22,0006.22,0005.67
2022-01-27 01:40:00,,0825.5,5.02,0.00,22.8,22.0,00.0,31.9,24.5,09.1,0000.0,0010.38,0006.33,0005.75
2022-01-27 01:41:00,,0825.4,5.00,0.00,22.8,22.0,00.0,31.9,24.5,09.2,0000.0,0010.92,0006.48,0005.86
2022-01-27 01:42:00,,0825.5,5.00,0.00,22.8,22.0,00.0,31.9,24.5,09.2,0000.0,0012.00,0006.58,0005.91
2022-01-27 01:43:00,,0825.5,5.00,0.00,22.7,22.0,00.0,31.9,24.5,09.3,0000.0,0012.51,0006.55,0005.89
2022-01-27 01:44:00,,0825.5,4.99,0.00,22.7,21.9,00.0,31.9,24.5,09.3,0000.0,0012.43,0006.52,0005.86
2022-01-27 01:45:00,,0825.5,5.00,0.00,22.7,21.9,00.0,31.8,24.4,09.4,0000.0,0012.14,0006.51,0005.87
2022-01-27 01:46:00,,0825.4,5.00,0.00,22.7,21.9,00.0,31.8,24.4,09.4,0000.0,0012.94,0006.52,0005.89
2022-01-27 01:47:00,,0825.5,5.00,0.00,22.7,21.9,00.0,31.8,24.4,09.5,0000.0,0012.89,0006.51,0005.90
2022-01-27 01:48:00,,0825.5,5.01,0.00,22.7,21.9,00.0,31.8,24.4,09.6,0001.0,0012.87,0006.51,0005.92
2022-01-27 01:49:00,,0825.5,4.99,0.00,22.7,21.8,00.0,31.8,24.3,09.4,0000.0,0013.27,0006.49,0005.93
2022-01-27 01:50:00,,0825.4,5.01,0.00,22.6,21.8,00.0,31.8,24.2,09.4,0000.0,0013.34,0006.52,0005.97
2022-01-27 01:51:00,,0825.4,4.99,0.00,22.6,21.7,00.0,31.7,24.2,09.2,0002.4,0013.28,0006.49,0005.96
2022-01-27 01:52:00,,0825.4,4.99,0.00,22.5,21.7,00.0,31.7,24.2,09.1,0003.1,0012.66,0006.37,0005.90
2022-01-27 01:53:00,,0825.4,5.00,0.00,22.5,21.7,00.0,31.7,24.2,09.0,0003.0,0011.83,0006.25,0005.83
2022-01-27 01:54:00,,0825.4,5.00,0.00,22.5,21.7,00.0,31.7,24.1,09.1,0000.0,0011.28,0006.19,0005.77
2022-01-27 01:55:00,,0825.4,5.00,0.00,22.4,21.6,00.0,31.6,24.0,09.0,0000.0,0011.00,0006.10,0005.70
2022-01-27 01:56:00,,0825.4,5.01,0.00,22.4,21.5,00.0,31.6,23.9,08.8,0000.0,0010.80,0006.01,0005.63
2022-01-27 01:57:00,,0825.4,4.99,0.00,22.3,21.5,00.0,31.6,23.9,08.7,0000.0,0010.29,0005.94,0005.53
2022-01-27 01:58:00,,0825.5,5.00,0.00,22.3,21.5,00.0,31.5,23.9,08.9,0000.0,0010.43,0005.86,0005.46
2022-01-27 01:59:00,,0825.4,5.00,0.00,22.3,21.5,00.0,31.5,24.0,09.3,0000.0,0010.34,0005.82,0005.41
